OK6RW-6 Weather Reports


time (UTC)temp
F
wind
direction
speed
knots
gust
knots
rain 1hr
in
rain 24hr
in
rain mn
in
humidity
%
barometer
mb
20260905084003 65 129 4.3 8.7 0.00 0.05 0.05 65 1014.8
20260905083003 66 74 0.9 3.5 0.00 0.05 0.05 70 1014.7
20260905082003 62 118 3.5 7.0 0.00 0.05 0.05 75 1014.9
20260905081003 62 101 3.5 8.7 0.00 0.05 0.05 75 1014.6
20260905080003 61 99 3.5 7.0 0.00 0.05 0.05 76 1014.4
20260905075003 61 95 2.6 5.2 0.00 0.05 0.05 77 1014.3
20260905074003 60 102 4.3 8.7 0.00 0.05 0.05 77 1014.3
20260905073003 59 97 3.5 7.0 0.00 0.05 0.05 80 1013.9
20260905072002 59 119 2.6 4.3 0.00 0.05 0.05 81 1013.8
20260905071003 58 78 2.6 6.1 0.00 0.05 0.05 82 1013.4
20260905070002 58 96 2.6 4.3 0.00 0.05 0.05 83 1013.5
20260905065003 58 92 1.7 3.5 0.00 0.05 0.05 84 1013.8
20260905064002 58 136 0.9 3.5 0.02 0.05 0.05 86 1013.7
20260905063003 57 137 0.9 5.2 0.02 0.05 0.05 87 1013.9
20260905062003 57 127 0.9 3.5 0.02 0.05 0.05 86 1013.7
20260905061002 57 227 1.7 3.5 0.04 0.05 0.05 85 1013.8
20260905060003 57 80 0.9 2.6 0.04 0.05 0.05 84 1013.5
20260905054003 58 111 2.6 6.1 0.01 0.02 0.02 81 1013.8
20260905052003 58 101 4.3 9.6 0.01 0.02 0.02 77 1013.8
20260905051003 59 91 3.5 7.0 0.00 0.01 0.01 80 1013.6
20260905045003 59 130 0.9 1.7 0.00 0.01 0.01 83 1013.1
20260905044003 59 100 1.7 3.5 0.00 0.01 0.01 83 1013.2
20260905043003 59 110 1.7 3.5 0.01 0.01 0.01 84 1013.0
20260905042003 59 94 1.7 3.5 0.01 0.01 0.01 84 1013.0
20260905041004 59 142 0.9 2.6 0.01 0.01 0.01 83 1012.7
20260905040003 59 108 1.7 3.5 0.01 0.01 0.01 81 1012.5
20260905034003 60 140 2.6 7.0 0.01 0.01 0.01 78 1012.3
20260905033004 61 88 3.5 7.0 0.00 0.00 0.00 78 1012.9
20260905032003 61 112 2.6 4.3 0.00 0.00 0.00 77 1011.7
20260905031003 61 136 2.6 6.1 0.00 0.00 0.00 76 1011.6
20260905030003 62 147 3.5 7.0 0.00 0.00 0.00 76 1012.3
20260905025004 62 110 6.1 8.7 0.00 0.00 0.00 75 1012.1